Location: Newark
(48.5178°N, 4.2361°E)
Time: 01:25:54
(UTC+00:00)

Envisat - Pass Details

Date: 10 March 2021
Orbit: 764 x 766 km, 98.1° (Epoch: 11 April)

Event Time Altitude Azimuth Distance (km) Brightness Sun altitude
Rises 03:58:23 0° 30° (NNE) 3,243 7.0 -21.7°
Reaches altitude 10° 04:01:52 10° 55° (NE) 2,310 6.5 -21.2°
Maximum altitude 04:04:32 14° 87° (E) 2,027 6.2 -20.8°
Drops below altitude 10° 04:07:11 10° 119° (ESE) 2,300 6.0 -20.4°
Sets 04:10:38 0° 144° (SE) 3,219 6.5 -19.8°
